This is the latest recevied weather packets stored in our database for station/object N5CSU. If no packets are shown the sender has not sent any weather packets the latest 10 day(s).
| Time | Temp. | Humidity | Pressure | Rain* | Wind** | Luminosity | Snow |
|---|---|---|---|---|---|---|---|
| 1777934959 | 26.67° C | 62% | 1007.4 hPa | 0 mm | - | 17 W/m² | - |
| 1777934655 | 26.67° C | 61% | 1007.3 hPa | 0 mm | - | 9 W/m² | - |
| 1777934353 | 26.67° C | 61% | 1007.3 hPa | 0 mm | - | 9 W/m² | - |
| 1777934048 | 26.67° C | 62% | 1007.4 hPa | 0 mm | - | 9 W/m² | - |
| 1777933744 | 26.67° C | 61% | 1007.3 hPa | 0 mm | - | 11 W/m² | - |
| 1777933441 | 26.11° C | 61% | 1007.4 hPa | 0 mm | - | 11 W/m² | - |
| 1777933140 | 26.11° C | 61% | 1007.4 hPa | 0 mm | - | 12 W/m² | - |
| 1777932836 | 26.67° C | 61% | 1007.7 hPa | 0 mm | - | 12 W/m² | - |
| 1777932534 | 26.67° C | 61% | 1007.6 hPa | 0 mm | - | 12 W/m² | - |
| 1777932230 | 26.67° C | 61% | 1007.8 hPa | 0 mm | - | 14 W/m² | - |
| 1777931927 | 26.67° C | 60% | 1007.7 hPa | 0 mm | - | 18 W/m² | - |
| 1777931623 | 26.11° C | 60% | 1007.9 hPa | 0 mm | - | 20 W/m² | - |
| 1777931320 | 26.67° C | 59% | 1007.8 hPa | 0 mm | - | 15 W/m² | - |
| 1777931017 | 26.67° C | 59% | 1007.7 hPa | 0 mm | - | 14 W/m² | - |
| 1777930713 | 26.67° C | 60% | 1008 hPa | 0 mm | - | 27 W/m² | - |
| 1777930409 | 26.67° C | 60% | 1008.1 hPa | 0 mm | - | 19 W/m² | - |
| 1777930107 | 26.67° C | 59% | 1008 hPa | 0 mm | - | 10 W/m² | - |
| 1777929803 | 27.22° C | 58% | 1008.3 hPa | 0 mm | - | 12 W/m² | - |
| 1777929501 | 26.67° C | 59% | 1008.3 hPa | 0 mm | - | 14 W/m² | - |
| 1777929196 | 26.67° C | 60% | 1008.4 hPa | 0 mm | - | 16 W/m² | - |
| 1777928894 | 26.67° C | 60% | 1008.5 hPa | 0 mm | - | 16 W/m² | - |
| 1777928591 | 26.67° C | 60% | 1008.4 hPa | 0 mm | - | 19 W/m² | - |
| 1777928288 | 26.67° C | 60% | 1008.7 hPa | 0 mm | - | 18 W/m² | - |
| 1777927986 | 26.67° C | 60% | 1008.9 hPa | 0 mm | - | 38 W/m² | - |
| 1777927684 | 26.11° C | 60% | 1008.8 hPa | 0 mm | - | 22 W/m² | - |
* Rain latest hour (hover to see other rain measurements)
** Current wind speed in m/s (hover to see current wind gust speed)